Location: Boulin
(43.2500°N, 0.1333°E)
Time: 21:28:11
(UTC+00:00)

Cosmos 1386 Rocket - Pass Details

Date: 11 December 2025
Orbit: 929 x 1004 km, 83.0° (Epoch: 21 January)

Event Time Altitude Azimuth Distance (km) Brightness Sun altitude
Rises 18:44:53 0° 354° (N) 3,611 7.5 -24.8°
Reaches altitude 10° 18:47:23 10° 357° (N) 2,671 6.7 -25.2°
Maximum altitude 18:53:28 68° 80° (E) 1,024 4.3 -26.3°
Drops below altitude 10° 18:59:37 10° 164° (SSE) 2,703 6.7 -27.4°
Sets 19:02:09 0° 167° (SSE) 3,657 7.4 -27.9°
